Location: Waco, TX
(31.5480°N, 97.1670°W)
Time: 08:57:56
(UTC-05:00)

ISS - Pass Details

Date: 15 October 2019
Orbit: 411 x 421 km, 51.6° (Epoch: 18 October)

Event Time Altitude Azimuth Distance (km) Brightness Sun altitude
Rises 11:34:12 0° 274° (W) 2,353 -0.2 43.2°
Reaches altitude 10° 11:37:46 10° 314° (NW) 1,490 -1.3 43.7°
Maximum altitude 11:38:38 11° 329° (NNW) 1,445 -1.4 43.8°
Drops below altitude 10° 11:39:31 10° 344° (NNW) 1,490 -1.3 43.9°
Sets 11:43:05 0° 25° (NNE) 2,352 -0.2 44.3°
